Find Starlink 32294

NORAD ID: 61675 Int'l Des: 2024-193 Owner: SPXS Country: US Constellation: starlink operational
LEOCIRCULAR

Live-Position

3D-Globus wird geladen...

Über Starlink 32294

Beschreibung wird geladen...

Nächste Überflüge

Passes for default location (London). Set your location on the main map for personalized predictions.

Höhenverlauf

Loading altitude history...

Zweizeiliger Elementsatz

1 61675U 24193Q 26123.51410883 .00000973 00000-0 44971-4 0 9996
2 61675 53.1604 196.1294 0001231 84.3182 275.7959 15.30190334 84927
Epoch: 3. Mai 2026 • Age: 9 hours

Aktueller Status

Höhe 484.8 km
Geschwindigkeit 7.62 km/s
Subsatellitenpunkt -29.67°S, 139.11°W
Startdatum 26. Okt. 2024
Alter 1.5 years
Typ internet

Technische Details

Klassifizierung Payload
Masse 730.00 kg
Trockenmasse 700.00 kg
Gesamtmasse 730.00 kg
Länge 0.30 m
Durchmesser 4.10 m
Spannweite 29.00 m
Form Box + pan
Hersteller SPXS
Bus-Typ Starlink V2M
Phasenstatus In Orbit
Besitzer/Staat SPXS/US

Most Searched